Date,TemperatureHighF,TemperatureAvgF,TemperatureLowF,DewpointHighF,DewpointAvgF,DewpointLowF,HumidityHigh,HumidityAvg,HumidityLow,PressureMaxIn,PressureMinIn,WindSpeedMaxMPH,WindSpeedAvgMPH,GustSpeedMaxMPH,PrecipitationSumIn
2013-1-1,15,9,4,7,4,0,95,77,65,30.22,30.11,14,5,15,0.00
2013-1-2,26,20,7,21,14,2,92,76,57,30.16,30.03,16,5,16,0.00
2013-1-3,26,22,14,21,18,10,88,84,80,30.20,30.02,24,8,24,0.00
2013-1-4,29,21,11,22,15,7,87,79,69,30.17,30.04,28,10,29,0.00
2013-1-5,35,28,15,33,25,13,96,88,77,30.19,29.83,23,7,23,0.07
2013-1-6,35,26,17,32,22,14,91,84,76,30.26,29.83,24,9,25,0.00
2013-1-7,38,26,15,28,21,12,92,80,62,30.25,30.01,32,10,32,0.00
2013-1-8,40,34,24,32,28,22,93,81,70,30.08,29.90,24,6,24,0.00
2013-1-9,41,36,27,32,28,22,89,73,55,30.42,29.88,33,10,33,0.00
2013-1-10,41,32,20,36,28,18,96,87,74,30.45,29.85,18,4,20,0.47
2013-1-11,52,44,37,48,43,36,98,95,84,29.85,29.56,30,8,30,0.09
2013-1-12,52,38,25,48,32,20,88,79,69,29.94,29.57,29,12,29,0.00
2013-1-13,25,19,13,22,14,7,90,79,72,30.18,29.83,22,9,22,0.00
2013-1-14,24,16,9,12,8,5,85,72,50,30.42,30.18,19,5,19,0.00
2013-1-15,30,20,12,18,14,9,89,75,51,30.40,30.06,17,5,17,0.00
2013-1-16,34,27,17,30,20,10,86,77,58,30.06,29.73,31,10,31,0.00
2013-1-17,30,21,14,19,9,3,81,61,46,30.36,30.01,23,7,23,0.00
2013-1-18,41,30,12,32,23,8,89,76,65,30.39,29.78,38,12,40,0.00
2013-1-19,44,40,37,36,33,20,83,76,46,29.82,29.60,37,12,40,0.00
2013-1-20,19,12,8,8,1,-1,69,61,49,30.25,29.85,23,10,38,0.00
2013-1-21,11,4,-2,6,-5,-11,83,65,53,30.26,30.10,30,11,30,0.00
2013-1-22,7,1,-6,-3,-8,-13,74,66,57,30.36,30.26,22,8,22,0.00
2013-1-23,18,12,2,14,5,-4,88,74,62,30.36,30.06,31,8,36,0.00
2013-1-24,19,11,1,10,1,-5,76,66,51,30.63,30.34,25,5,25,0.00
2013-1-25,26,20,16,18,13,5,88,75,55,30.34,29.91,21,8,22,0.00
2013-1-26,27,18,9,15,9,4,83,69,47,30.36,30.15,18,5,18,0.00
2013-1-27,34,28,23,33,23,14,96,83,68,30.33,29.83,21,7,21,0.00
2013-1-28,43,38,33,40,35,31,97,91,76,29.90,29.73,18,5,18,0.24
2013-1-29,59,46,36,57,45,35,100,96,90,29.77,29.37,24,6,24,0.79
2013-1-30,37,29,16,36,27,12,97,93,84,29.54,29.19,32,13,32,0.12
2013-1-31,16,11,3,12,5,-3,85,76,67,30.11,29.54,29,13,29,0.00
2013-2-1,8,2,-3,5,-3,-8,92,77,68,30.30,30.11,23,9,23,0.00
2013-2-2,12,9,2,9,4,-2,91,81,68,30.14,30.01,15,5,16,0.00
2013-2-3,19,13,3,13,8,-1,89,80,66,30.03,29.92,27,6,27,0.00
2013-2-4,20,15,7,15,11,3,91,84,70,30.00,29.89,19,5,19,0.00
2013-2-5,28,18,3,25,15,0,98,86,76,30.07,29.76,21,6,21,0.00
2013-2-6,34,23,4,30,18,2,100,81,69,30.20,30.05,16,3,16,0.09
2013-2-7,34,32,22,32,30,21,97,93,85,30.08,29.84,21,4,21,0.09
2013-2-8,24,20,12,21,18,9,95,91,85,30.37,29.97,21,6,22,0.00
2013-2-9,29,19,5,25,16,2,95,90,85,30.37,30.06,20,3,21,0.00
2013-2-10,44,34,21,42,33,19,97,94,76,30.06,29.38,26,7,30,0.28
2013-2-11,41,32,26,34,26,21,88,81,75,29.93,29.38,39,16,39,0.00
2013-2-12,27,24,20,21,19,17,92,82,73,30.04,29.84,21,7,21,0.00
2013-2-13,39,30,18,30,25,16,94,85,69,29.84,29.66,17,5,17,0.00
2013-2-14,36,34,28,33,29,21,96,82,70,29.92,29.53,32,8,32,0.01
2013-2-15,29,21,14,25,12,6,88,68,49,30.15,29.92,28,8,28,0.00
2013-2-16,16,12,6,6,3,0,80,67,50,30.17,30.10,21,7,21,0.00
2013-2-17,26,16,0,15,6,-4,85,66,45,30.19,29.96,13,3,13,0.00
2013-2-18,47,36,25,42,30,15,95,78,64,29.95,29.37,29,8,29,0.52
2013-2-19,30,14,8,28,10,1,95,83,72,30.14,29.45,35,15,36,0.00
2013-2-20,20,12,6,11,6,0,87,75,67,30.36,30.13,22,8,22,0.00
2013-2-21,27,20,11,24,17,8,91,85,78,30.40,30.03,30,8,30,0.00
2013-2-22,31,28,24,29,26,23,95,93,87,30.03,29.74,21,7,21,0.02
2013-2-23,28,25,21,25,20,17,91,82,71,29.90,29.80,19,8,21,0.00
2013-2-24,36,26,16,25,20,13,90,77,60,30.11,29.90,11,4,11,0.03
2013-2-25,42,28,14,28,22,12,92,79,57,30.14,29.99,11,2,11,0.00
2013-2-26,34,32,30,31,29,26,97,87,73,29.99,29.54,40,16,40,0.00
2013-2-27,33,31,29,32,30,28,97,97,96,29.69,29.51,22,7,22,0.09
2013-2-28,33,30,25,31,27,20,96,88,81,30.07,29.69,26,10,27,0.00
2013-3-1,25,24,22,22,20,17,92,84,78,30.19,30.04,25,10,25,0.00
2013-3-2,25,19,9,17,13,6,89,77,68,30.19,30.13,21,6,21,0.00
2013-3-3,29,17,3,18,7,1,90,68,38,30.14,30.06,14,2,14,0.00
2013-3-4,32,22,6,24,16,2,92,78,66,30.11,30.01,19,5,19,0.00
2013-3-5,32,29,26,28,26,24,96,90,77,30.01,29.82,26,9,27,0.00
2013-3-6,33,29,26,27,26,24,93,86,79,30.26,30.00,24,9,24,0.02
2013-3-7,36,28,16,24,21,14,100,75,56,30.39,30.25,15,3,15,0.00
2013-3-8,40,27,12,30,22,10,100,83,63,30.44,30.26,16,3,16,0.00
2013-3-9,41,35,28,34,30,24,91,82,71,30.26,29.77,20,4,20,0.09
2013-3-10,44,40,36,43,39,33,98,96,90,29.78,29.56,29,4,29,0.52
2013-3-11,40,34,31,39,33,28,98,96,87,29.69,29.47,21,6,21,0.05
2013-3-12,32,29,25,28,25,19,100,85,66,29.94,29.69,25,9,26,0.00
2013-3-13,31,24,19,21,14,8,85,68,39,30.25,29.94,27,12,28,0.00
2013-3-14,35,29,18,28,21,10,92,75,53,30.27,30.03,18,5,18,0.00
2013-3-15,37,32,29,34,29,26,94,91,83,30.03,29.75,24,5,24,0.07
2013-3-16,32,28,24,28,23,19,93,82,66,30.09,29.74,29,9,29,0.00
2013-3-17,30,26,20,24,18,11,81,71,61,30.21,29.98,20,8,21,0.00
2013-3-18,33,29,19,32,25,13,100,87,74,29.98,29.53,32,8,32,0.13
2013-3-19,29,20,13,14,11,7,82,68,51,30.00,29.67,39,14,39,0.00
2013-3-20,20,16,11,10,5,0,68,63,56,30.03,29.98,28,12,28,0.00
2013-3-21,28,20,10,15,10,3,74,65,55,30.03,29.98,20,7,20,0.00
2013-3-22,34,24,15,19,14,9,80,65,41,30.05,29.98,15,3,15,0.00
2013-3-23,40,29,18,26,21,14,89,73,46,30.11,30.01,16,3,16,0.00
2013-3-24,34,32,30,29,26,23,87,79,74,30.02,29.69,33,12,33,0.00
2013-3-25,34,31,27,27,25,22,88,79,68,30.04,29.72,30,11,30,0.00
2013-3-26,40,35,30,29,26,24,80,71,63,30.19,30.04,20,7,20,0.00
2013-3-27,40,36,30,26,23,19,73,60,44,30.26,30.19,18,7,19,0.00
2013-3-28,46,36,28,25,22,19,74,57,38,30.29,30.24,14,4,15,0.00
2013-3-29,50,37,24,31,23,19,88,59,31,30.27,30.19,14,2,15,0.00
2013-3-30,55,43,28,42,32,22,82,66,49,30.19,29.75,26,6,27,0.00
2013-3-31,51,42,33,42,35,21,93,79,55,29.83,29.63,33,11,33,0.00
2013-4-1,35,30,27,22,16,12,82,55,39,30.14,29.83,35,9,35,0.00
2013-4-2,39,31,24,18,14,11,74,51,32,30.27,30.14,25,8,25,0.00
2013-4-3,44,34,22,21,16,8,81,51,25,30.41,30.25,16,5,18,0.00
2013-4-4,56,43,28,36,26,13,66,51,38,30.25,29.90,27,8,28,0.00
2013-4-5,45,38,31,31,26,21,86,64,48,30.19,29.96,19,6,22,0.00
2013-4-6,64,48,34,50,36,23,90,64,42,30.12,29.48,32,10,35,0.16
2013-4-7,54,44,35,50,36,32,91,75,53,29.92,29.49,29,8,33,0.00
2013-4-8,53,42,35,47,39,31,96,88,79,29.94,29.51,25,6,25,0.50
2013-4-9,40,38,37,40,37,36,97,96,94,29.98,29.81,36,11,36,1.51
2013-4-10,38,36,34,37,35,32,96,95,94,30.06,29.80,36,15,40,0.68
2013-4-11,38,37,35,37,36,34,97,96,94,29.88,29.52,28,12,29,0.50
2013-4-12,42,38,35,39,35,30,98,91,80,29.75,29.47,22,7,24,0.08
2013-4-13,38,36,32,30,28,24,86,75,60,29.95,29.74,24,8,25,0.01
2013-4-14,53,39,31,48,35,27,95,86,77,29.97,29.57,24,7,26,0.09
2013-4-15,63,52,41,52,46,36,96,82,48,29.91,29.56,33,10,39,0.63
2013-4-16,54,42,35,39,35,32,94,75,46,30.24,29.89,18,6,21,0.00
2013-4-17,43,41,39,42,37,31,96,85,67,30.26,29.80,35,9,35,0.77
2013-4-18,58,47,39,57,46,35,99,96,82,29.80,29.30,37,6,38,1.42
2013-4-19,40,36,30,35,29,24,92,75,61,29.85,29.33,35,15,35,0.01
2013-4-20,44,34,26,25,20,15,78,58,33,30.38,29.85,25,8,25,0.00
2013-4-21,49,40,29,32,26,22,86,60,42,30.48,30.24,25,7,25,0.00
2013-4-22,67,53,41,41,35,31,71,52,31,30.25,29.96,22,6,22,0.00
2013-4-23,54,44,37,49,40,33,94,85,60,29.96,29.82,24,6,24,0.41
2013-4-24,52,42,34,33,28,22,83,59,31,30.00,29.88,26,8,26,0.00
2013-4-25,51,44,39,36,32,26,84,63,40,30.25,29.93,26,8,28,0.00
2013-4-26,66,53,36,47,39,28,80,60,44,30.25,30.11,34,10,34,0.00
2013-4-27,68,57,46,48,44,42,91,65,40,30.19,29.94,19,5,20,0.00
2013-4-28,70,58,49,52,46,41,89,68,46,29.94,29.73,14,2,14,0.00
2013-4-29,70,60,47,56,52,46,97,76,52,29.81,29.67,20,6,20,0.04
2013-4-30,85,72,62,61,56,50,85,61,30,29.82,29.64,34,13,35,0.00
2013-5-1,84,72,51,59,54,42,78,55,27,30.10,29.82,29,8,29,0.00
2013-5-2,58,47,39,49,41,36,94,80,59,30.18,30.10,31,11,31,0.58
2013-5-3,48,43,38,47,41,37,96,94,89,30.12,29.93,23,10,23,0.48
2013-5-4,70,57,46,50,46,42,93,71,46,29.99,29.92,23,8,23,0.00
2013-5-5,71,58,45,47,43,38,89,61,36,29.99,29.93,23,6,23,0.00
2013-5-6,75,61,48,46,39,28,71,47,21,30.00,29.91,18,4,18,0.00
2013-5-7,76,64,48,49,42,36,80,49,26,29.99,29.91,16,3,16,0.00
2013-5-8,80,65,46,51,45,41,87,53,26,29.97,29.88,17,2,17,0.00
2013-5-9,70,57,44,59,50,42,96,80,57,29.88,29.80,30,6,30,0.25
2013-5-10,49,45,41,45,42,39,96,92,85,29.92,29.76,31,10,31,0.67
2013-5-11,52,46,38,49,36,24,98,74,35,29.96,29.73,36,10,37,0.04
2013-5-12,52,44,37,32,27,23,76,53,33,30.05,29.96,27,10,28,0.00
2013-5-13,62,47,33,38,32,23,94,60,26,30.13,29.91,18,4,18,0.00
2013-5-14,86,67,47,61,49,34,70,54,31,29.91,29.49,21,7,22,0.01
2013-5-15,78,72,58,61,48,38,67,45,25,29.76,29.49,22,7,23,0.00
2013-5-16,82,67,56,52,44,35,71,44,29,29.90,29.74,19,7,19,0.00
2013-5-17,57,56,54,42,40,36,64,55,48,29.94,29.89,11,4,11,0.00
2013-5-18,78,64,51,62,54,46,86,70,54,30.00,29.88,10,4,19,0.00
2013-5-19,84,71,55,66,61,52,94,73,53,29.88,29.62,15,5,29,0.05
2013-5-20,84,76,66,65,61,57,88,60,43,29.66,29.57,28,8,31,0.07
2013-5-21,78,69,61,65,61,56,93,77,49,29.61,29.53,24,8,32,8.73
2013-5-22,68,61,54,65,59,53,96,92,84,29.69,29.54,9,3,21,0.50
2013-5-23,56,50,39,53,45,36,96,85,67,30.26,29.69,18,9,31,0.05
2013-5-24,63,48,36,43,36,32,92,65,37,30.40,30.26,10,4,18,0.00
2013-5-25,60,51,41,41,36,29,92,59,33,30.34,30.24,10,3,16,0.00
2013-5-26,66,53,38,50,41,34,89,65,38,30.25,30.10,13,5,23,0.03
2013-5-27,54,52,50,52,48,42,100,89,68,30.10,29.84,13,6,23,0.03
2013-5-28,72,60,50,68,58,49,99,95,81,29.84,29.62,16,3,16,1.13
2013-5-29,82,71,64,68,65,62,98,82,60,29.84,29.68,17,4,18,0.01
2013-5-30,84,76,63,70,66,61,94,74,58,29.81,29.65,36,11,40,0.23
2013-5-31,76,69,63,68,63,61,96,84,64,29.76,29.61,31,9,31,0.12
2013-6-1,76,70,63,67,64,58,94,83,66,29.62,29.53,24,7,24,0.08
2013-6-2,64,55,47,58,48,43,92,78,62,29.96,29.59,29,6,29,0.00
2013-6-3,71,58,43,50,44,38,97,64,35,30.04,29.94,14,2,14,0.00
2013-6-4,71,60,50,48,44,41,81,58,38,30.10,30.00,18,4,20,0.00
2013-6-5,64,57,52,53,49,46,92,74,58,30.07,29.90,18,4,18,0.06
2013-6-6,59,55,52,53,51,48,94,86,74,29.91,29.84,17,4,17,0.03
2013-6-7,71,61,51,52,45,39,88,61,31,29.92,29.84,22,5,22,0.00
2013-6-8,74,60,47,52,48,43,90,65,35,29.95,29.85,14,2,14,0.00
2013-6-9,79,67,54,61,56,50,88,69,46,29.95,29.74,27,5,27,0.00
2013-6-10,80,69,60,66,62,59,95,81,56,29.78,29.68,19,2,19,0.00
2013-6-11,85,73,59,66,62,58,97,72,47,29.84,29.71,16,4,16,0.00
2013-6-12,76,69,62,66,64,61,97,85,70,29.81,29.55,39,5,39,0.92
2013-6-13,76,66,55,62,56,51,97,73,51,30.00,29.58,27,7,27,0.01
2013-6-14,57,54,53,51,50,49,91,87,76,30.04,29.98,11,3,11,0.00
2013-6-15,79,67,55,71,61,49,95,83,72,30.00,29.73,10,3,17,0.38
2013-6-16,83,74,63,69,60,51,94,66,34,29.82,29.75,11,6,21,0.18
2013-6-17,85,70,58,66,58,52,91,68,37,29.89,29.75,14,5,26,0.00
2013-6-18,70,61,52,57,51,42,90,70,48,30.02,29.87,12,8,22,0.00
2013-6-19,76,65,48,50,46,42,85,54,35,30.09,30.01,18,4,18,0.00
2013-6-20,87,71,54,62,54,45,77,57,35,30.07,29.98,19,3,19,0.00
2013-6-21,75,70,63,68,64,56,96,83,65,30.04,29.81,19,4,35,13.51
2013-6-22,79,71,66,73,68,65,97,90,79,30.05,29.85,15,5,32,0.81
2013-6-23,87,75,64,75,68,63,96,80,62,29.94,29.78,13,6,21,0.00
2013-6-24,81,73,68,71,68,66,96,84,66,29.94,29.74,13,4,24,0.01
2013-6-25,82,72,65,74,68,64,97,90,73,29.85,29.71,18,3,30,1.08
2013-6-26,80,72,67,70,68,66,96,87,70,29.75,29.62,10,3,19,0.26
2013-6-27,86,74,66,72,68,65,97,83,52,29.69,29.59,13,4,21,0.11
2013-6-28,77,70,64,65,63,59,94,78,56,29.62,29.51,16,8,30,0.06
2013-6-29,73,66,63,63,60,55,96,81,55,29.73,29.52,19,9,32,0.02
2013-6-30,78,68,59,60,52,44,86,60,36,29.94,29.73,15,8,26,0.01
2013-7-1,74,63,58,54,50,46,78,63,42,30.02,29.94,12,6,22,0.00
2013-7-2,74,63,56,58,52,43,89,70,36,30.04,29.99,13,6,22,0.03
2013-7-3,68,64,60,64,60,53,94,87,76,30.00,29.94,8,3,14,0.01
2013-7-4,83,72,60,66,61,54,97,72,38,30.02,29.93,7,2,13,0.00
2013-7-5,84,74,62,66,62,59,92,69,46,29.99,29.91,11,4,19,0.00
2013-7-6,86,75,61,69,63,57,94,70,38,29.97,29.87,7,2,13,0.00
2013-7-7,88,78,68,72,69,66,95,77,53,29.90,29.83,9,3,14,0.00
2013-7-8,86,77,71,76,72,69,95,85,68,29.90,29.82,12,5,22,0.38
2013-7-9,83,74,68,76,71,67,97,91,75,29.90,29.74,13,4,24,0.61
2013-7-10,78,74,65,75,64,55,94,72,46,29.92,29.74,14,7,24,0.00
2013-7-11,81,69,57,62,56,51,91,65,40,30.04,29.92,9,3,20,0.00
2013-7-12,84,69,53,60,54,34,94,63,21,30.09,29.99,10,2,15,0.00
2013-7-13,82,71,56,63,59,54,96,68,40,30.09,30.02,9,4,18,0.00
2013-7-14,87,76,62,70,66,60,96,74,50,30.14,30.08,8,3,15,0.00
2013-7-15,90,79,66,75,71,65,96,78,56,30.18,30.12,10,2,18,0.00
2013-7-16,92,82,72,76,74,70,96,78,57,30.19,30.13,9,3,14,0.00
2013-7-17,93,83,74,76,73,69,94,74,53,30.19,30.06,11,4,19,0.00
2013-7-18,93,83,73,76,73,70,95,73,52,30.07,29.81,12,5,23,0.00
2013-7-19,91,83,75,75,72,67,86,70,55,29.81,29.63,14,8,27,0.00
2013-7-20,85,73,62,67,63,59,88,71,46,29.88,29.71,14,5,22,0.02
2013-7-21,82,68,60,69,62,57,96,82,57,29.89,29.78,16,4,23,1.61
2013-7-22,84,74,62,72,67,61,98,81,55,29.81,29.60,16,4,31,0.00
2013-7-23,75,68,57,64,58,53,90,72,50,29.92,29.61,15,7,25,0.03
2013-7-24,73,63,54,56,53,50,94,72,46,30.00,29.91,7,3,13,0.00
2013-7-25,78,66,52,62,57,50,95,74,52,30.02,29.89,11,4,18,0.00
2013-7-26,70,66,61,67,62,57,96,89,73,29.90,29.77,13,5,27,0.50
2013-7-27,61,57,53,57,50,46,95,80,61,29.85,29.79,14,8,22,0.01
2013-7-28,66,58,51,54,51,48,93,78,62,29.93,29.77,12,6,21,0.01
2013-7-29,75,63,54,60,55,52,92,77,54,30.11,29.93,7,3,13,0.00
2013-7-30,75,64,54,65,59,52,97,86,57,30.12,30.01,8,2,14,0.20
2013-7-31,76,66,62,68,64,59,98,93,73,30.01,29.86,14,2,29,0.72
2013-8-1,76,68,60,62,58,53,96,74,45,29.91,29.83,13,6,22,0.00
2013-8-2,79,69,60,67,61,56,97,77,50,29.87,29.76,10,4,15,0.42
2013-8-3,77,68,58,58,55,50,88,65,42,30.04,29.87,10,4,18,0.00
2013-8-4,75,64,55,61,56,52,95,76,53,30.14,30.04,8,2,14,0.00
2013-8-5,73,64,55,64,59,54,96,86,67,30.06,29.80,11,3,19,0.00
2013-8-6,82,72,62,71,67,61,97,84,65,29.80,29.71,9,3,15,0.00
2013-8-7,82,74,64,72,67,61,96,80,51,29.88,29.67,11,5,20,0.00
2013-8-8,77,68,60,63,56,49,97,70,40,29.98,29.88,8,3,15,0.01
2013-8-9,79,68,54,65,59,52,91,74,59,29.97,29.89,11,4,18,0.00
2013-8-10,76,67,56,63,57,52,95,73,45,30.06,29.97,7,2,13,0.00
2013-8-11,75,64,53,66,60,52,97,87,70,30.06,29.95,9,1,12,0.07
2013-8-12,80,70,63,69,65,59,98,85,57,29.96,29.80,12,2,22,0.37
2013-8-13,69,61,52,59,50,46,92,70,48,30.10,29.89,14,6,22,0.00
2013-8-14,73,61,50,54,50,47,95,71,43,30.16,30.06,9,3,17,0.00
2013-8-15,60,56,54,55,53,52,91,87,84,30.08,30.06,5,3,8,0.00
2013-8-16,80,67,55,60,56,53,95,71,42,30.12,30.04,7,2,15,0.00
2013-8-17,80,66,51,64,56,50,96,73,42,30.18,30.10,7,2,18,0.00
2013-8-18,80,67,51,63,57,50,96,73,49,30.15,30.02,7,2,13,0.01
2013-8-19,82,70,55,66,61,53,94,76,50,30.03,29.94,8,2,16,0.00
2013-8-20,85,73,61,68,65,60,96,76,53,30.01,29.92,11,4,20,0.00
2013-8-21,87,79,67,71,68,64,92,71,55,29.95,29.82,23,6,23,0.00
2013-8-22,78,71,63,70,67,61,95,89,77,30.04,29.89,36,4,36,0.93
2013-8-23,80,68,57,65,59,55,96,74,46,30.11,30.03,20,3,20,0.00
2013-8-24,84,70,53,66,61,52,97,75,50,30.18,30.08,14,3,14,0.01
2013-8-25,88,77,67,72,66,58,85,69,46,30.13,30.00,24,6,24,0.00
2013-8-26,90,79,72,76,70,65,84,75,62,30.03,29.86,21,6,21,0.00
2013-8-27,93,83,73,76,73,70,91,73,54,29.87,29.69,26,6,26,0.00
2013-8-28,85,76,67,74,70,64,94,81,64,29.95,29.72,18,4,18,0.00
2013-8-29,88,75,62,71,67,61,97,78,51,30.00,29.89,15,2,15,0.00
2013-8-30,94,74,66,77,69,64,94,85,49,29.89,29.66,48,5,48,0.32
2013-8-31,76,69,62,69,65,61,96,88,76,29.78,29.71,11,2,11,0.00
2013-9-1,83,70,61,72,66,60,98,87,67,29.74,29.62,24,3,24,0.02
2013-9-2,71,64,57,62,58,52,94,81,61,29.92,29.73,18,5,18,0.00
2013-9-3,75,62,51,57,53,48,94,76,47,30.02,29.92,13,2,13,0.00
2013-9-4,80,66,53,66,59,52,96,80,54,30.05,29.95,15,3,15,0.00
2013-9-5,71,64,52,63,54,47,96,72,47,30.20,30.05,20,4,21,0.00
2013-9-6,84,67,48,68,59,46,96,77,56,30.16,29.91,14,3,15,0.00
2013-9-7,81,73,66,71,67,62,94,82,62,29.91,29.80,22,4,22,0.00
2013-9-8,71,68,65,67,64,62,93,89,80,29.97,29.88,26,6,26,0.00
2013-9-9,90,78,66,78,71,64,94,81,62,29.90,29.69,17,4,17,0.00
2013-9-10,94,84,74,73,66,62,75,58,36,29.85,29.72,32,8,32,0.00
2013-9-11,82,75,68,69,66,64,91,75,59,29.99,29.83,15,4,17,0.00
2013-9-12,74,66,58,65,58,47,97,78,49,30.04,29.87,30,6,30,0.00
2013-9-13,65,55,47,48,44,40,89,68,42,30.14,30.04,26,6,26,0.00
2013-9-14,70,56,41,50,45,39,95,69,42,30.11,29.95,16,3,16,0.00
2013-9-15,58,56,53,57,52,46,99,89,64,30.15,29.91,25,4,25,0.44
2013-9-16,62,53,43,51,45,40,94,77,56,30.32,30.15,24,6,25,0.01
2013-9-17,68,55,41,55,49,40,97,81,57,30.28,30.05,18,4,18,0.01
2013-9-18,77,64,57,68,59,54,92,83,69,30.05,29.85,21,4,21,0.10
2013-9-19,81,72,67,74,68,64,96,89,71,29.85,29.65,18,6,28,25.13
2013-9-20,73,66,57,67,61,54,96,85,68,29.73,29.63,14,7,23,0.02
2013-9-21,58,54,49,54,48,44,92,80,65,29.89,29.73,13,7,22,0.00
2013-9-22,64,52,43,48,44,40,94,77,46,30.02,29.89,8,4,13,0.00
2013-9-23,65,52,40,52,46,39,100,82,57,30.07,29.99,9,3,15,0.01
2013-9-24,69,56,44,55,50,43,98,82,55,30.00,29.90,8,3,16,0.01
2013-9-25,68,56,45,59,50,44,98,82,57,29.93,29.89,9,3,18,0.01
2013-9-26,75,58,45,60,50,44,98,78,37,30.03,29.92,8,3,15,0.01
2013-9-27,80,62,46,57,52,44,98,75,41,30.10,29.99,12,3,19,0.01
2013-9-28,80,66,54,66,58,52,94,77,49,30.00,29.76,19,7,31,0.13
2013-9-29,70,58,47,54,48,41,96,73,35,29.99,29.87,7,2,13,0.01
2013-9-30,72,57,42,51,47,40,98,72,44,29.94,29.78,10,3,17,0.00
2013-10-1,81,67,52,64,59,48,94,78,52,29.88,29.76,18,8,29,0.00
2013-10-2,77,62,49,59,48,35,96,66,26,30.04,29.88,7,2,14,0.00
2013-10-3,74,66,55,68,63,52,98,91,76,29.92,29.76,11,2,18,0.11
2013-10-4,67,64,61,66,63,60,98,96,92,29.93,29.80,10,3,16,0.14
2013-10-5,74,66,62,72,65,61,100,97,87,29.88,29.65,9,2,17,0.90
2013-10-6,64,53,46,62,46,41,94,78,55,29.68,29.59,12,5,20,0.12
2013-10-7,66,52,45,48,45,43,96,78,44,30.02,29.65,14,6,22,0.02
2013-10-8,76,58,40,53,47,39,97,72,36,30.11,30.02,11,3,19,0.01
2013-10-9,72,58,47,52,47,41,94,71,34,30.16,30.07,9,2,15,0.00
2013-10-10,74,56,42,58,48,40,98,78,42,30.11,29.99,9,2,14,0.01
2013-10-11,75,61,48,59,53,47,98,78,50,30.00,29.88,14,4,23,0.01
2013-10-12,68,60,47,63,53,42,94,78,47,30.09,29.85,11,4,20,0.24
2013-10-13,60,49,40,44,40,37,91,72,43,30.35,30.09,12,4,19,0.00
2013-10-14,59,47,34,48,41,33,97,81,57,30.37,30.08,11,3,18,0.00
2013-10-15,61,54,46,59,50,43,96,88,80,30.08,29.67,12,5,21,0.27
2013-10-16,54,49,45,50,47,42,95,91,84,29.86,29.72,10,6,19,0.01
2013-10-17,50,46,42,46,44,39,97,93,83,29.85,29.75,9,3,14,0.09
2013-10-18,48,43,37,44,39,36,97,87,74,29.89,29.75,13,5,24,0.01
2013-10-19,51,43,37,39,37,33,95,81,53,29.86,29.68,14,6,23,0.00
2013-10-20,52,44,35,47,40,34,100,86,60,29.81,29.66,8,4,14,0.05
2013-10-21,49,41,31,45,32,24,89,72,58,29.88,29.69,15,8,24,0.00
2013-10-22,45,36,29,32,28,24,83,73,56,29.92,29.84,8,4,14,0.00
2013-10-23,42,36,28,30,27,22,92,70,47,29.96,29.87,12,7,20,0.00
2013-10-24,42,36,30,29,27,25,84,70,55,30.23,29.95,13,8,22,0.00
2013-10-25,50,40,26,31,28,23,89,63,43,30.32,29.87,19,10,33,0.00
2013-10-26,50,46,41,37,30,27,65,55,44,30.00,29.73,19,11,39,0.00
2013-10-27,54,42,30,33,30,27,89,66,41,29.99,29.86,16,6,24,0.00
2013-10-28,44,41,36,38,34,29,86,75,66,30.36,29.98,15,10,25,0.00
2013-10-29,53,43,35,43,38,30,96,83,69,30.34,30.08,9,5,15,0.00
2013-10-30,59,51,42,56,49,41,97,93,86,30.08,29.67,20,4,35,0.01
2013-10-31,62,58,46,61,56,44,98,96,92,29.68,29.14,17,6,35,0.51
2013-11-13,41,30,18,22,17,13,89,62,34,30.53,30.05,21,13,36,0.00
2013-11-14,46,39,32,31,26,19,69,60,51,30.05,29.85,18,11,27,0.00
2013-11-15,54,43,38,36,32,28,86,65,47,29.89,29.83,12,6,20,0.00
2013-11-16,59,49,37,56,47,33,96,92,85,29.85,29.45,21,10,38,0.26
2013-11-17,65,53,40,61,50,35,97,90,77,29.58,28.96,24,12,44,1.45
2013-11-18,40,34,27,36,27,22,85,75,64,30.20,29.59,20,12,33,0.00
2013-11-19,39,30,22,30,26,19,93,84,61,30.33,30.19,7,3,12,28.47
2013-11-20,43,37,32,35,30,26,94,78,54,30.23,30.05,13,6,24,0.09
2013-11-21,45,41,37,41,39,35,95,90,83,30.17,30.06,8,2,14,0.00
2013-11-22,39,32,25,37,27,18,94,81,68,30.42,30.16,15,9,25,0.02
2013-11-23,24,18,12,18,8,3,77,64,53,30.68,30.35,20,11,33,0.00
2013-11-24,26,18,8,10,6,3,84,62,41,30.67,30.26,18,9,28,0.00
2013-11-25,30,26,21,26,20,9,93,79,56,30.26,29.99,19,12,32,0.00
2013-11-26,31,26,14,27,19,5,88,75,56,30.14,29.97,18,8,27,0.00
2013-11-27,25,17,9,14,9,4,83,72,60,30.21,30.13,15,10,23,0.00
2013-12-12,17,8,-5,12,2,-10,82,75,66,30.49,30.16,15,8,24,0.00
2013-12-13,27,21,14,24,17,10,89,84,77,30.18,30.11,14,7,21,0.00
2013-12-14,27,25,20,25,22,17,94,90,86,30.12,29.88,11,8,22,0.00
2013-12-15,21,12,4,18,5,-5,91,72,60,30.10,29.85,17,9,26,0.00
2013-12-16,18,9,-2,12,3,-8,90,77,55,30.14,29.99,9,4,15,0.00
2013-12-17,33,25,14,25,19,12,93,81,64,30.01,29.87,16,9,26,0.03
2013-12-18,35,27,12,26,18,8,84,70,43,30.07,29.73,20,10,30,0.00
2013-12-19,33,30,26,31,27,23,100,88,78,29.91,29.74,15,6,22,0.00
2013-12-20,32,28,25,31,27,24,96,95,94,29.81,29.72,0,0,0,0.00
2013-12-21,32,28,24,32,27,23,97,96,93,29.84,29.61,0,0,0,0.00
2013-12-22,31,25,20,30,24,19,97,95,93,30.06,29.59,0,0,0,0.00
2013-12-23,20,11,-1,19,8,-4,94,90,84,30.38,30.06,0,0,0,0.00
2013-12-24,16,4,-5,13,1,-8,90,87,82,30.53,30.31,0,0,0,0.04
2013-12-25,23,20,13,21,18,10,93,91,88,30.31,30.03,0,0,0,0.00
2013-12-26,26,21,11,24,18,8,93,88,82,30.22,30.03,2,0,5,0.00
2013-12-27,38,28,15,32,24,13,96,87,76,30.23,29.96,15,3,23,0.06
2013-12-28,43,37,27,34,31,24,93,80,69,30.00,29.69,17,9,24,0.12
2013-12-29,40,22,0,31,17,-6,92,79,69,30.17,29.67,20,11,31,0.00
2013-12-30,0,-5,-9,-6,-11,-14,89,75,67,30.31,30.17,10,4,16,0.00